Location: Andershausen
(51.8462°N, 9.8595°E)
Time: 11:33:42
(UTC+00:00)

Sich 1 Rocket - Pass Details

Date: 18 November 2025
Orbit: 611 x 646 km, 82.5° (Epoch: 09 December)

Event Time Altitude Azimuth Distance (km) Brightness Sun altitude
Rises 18:07:03 0° 195° (SSW) 2,943 7.2 -24.5°
Reaches altitude 10° 18:09:18 10° 198° (SSW) 2,040 6.4 -24.9°
Maximum altitude 18:13:49 71° 282° (WNW) 690 3.8 -25.6°
Enters shadow 18:14:58 49° 348° (NNW) 845 4.2 -25.7°
